| time (UTC) | temp F | wind direction | speed knots | gust knots | rain 1hr in | rain 24hr in | rain mn in | humidity % | barometer mb |
| 20260504130543 | 49 | 201 | 1.7 | 3.5 | 0.00 | 0.00 | 0.00 | 46 | 1003.8 |
| 20260504110534 | 51 | 165 | 1.7 | 4.3 | 0.00 | 0.00 | 0.00 | 53 | 1004.3 |
| 20260504100526 | 49 | 204 | 2.6 | 5.2 | 0.00 | 0.00 | 0.00 | 53 | 1004.4 |
| 20260504081613 | 42 | 248 | 0.9 | 5.2 | 0.00 | 0.00 | 0.00 | 54 | 1004.5 |
| 20260504081012 | 43 | 248 | 3.5 | 5.2 | 0.00 | 0.00 | 0.00 | 54 | 1004.5 |
| 20260504080512 | 43 | 249 | 1.7 | 5.2 | 0.00 | 0.00 | 0.00 | 54 | 1004.7 |
| 20260504050535 | 45 | 213 | 1.7 | 3.5 | 0.00 | 0.00 | 0.00 | 53 | 1004.3 |
| 20260504045531 | 45 | 176 | 2.6 | 3.5 | 0.00 | 0.00 | 0.00 | 53 | 1004.3 |
| 20260504045030 | 46 | 318 | 0.0 | 0.9 | 0.00 | 0.00 | 0.00 | 53 | 1004.3 |
| 20260504044529 | 46 | 318 | 0.0 | 1.7 | 0.00 | 0.00 | 0.00 | 54 | 1004.3 |
| 20260504044027 | 46 | 318 | 0.0 | 2.6 | 0.00 | 0.00 | 0.00 | 54 | 1004.3 |
| 20260504043527 | 47 | 318 | 0.0 | 2.6 | 0.00 | 0.00 | 0.00 | 54 | 1004.3 |
| 20260504043024 | 48 | 318 | 0.0 | 2.6 | 0.00 | 0.00 | 0.00 | 54 | 1004.2 |
| 20260504042523 | 47 | 318 | 0.9 | 2.6 | 0.00 | 0.00 | 0.00 | 54 | 1004.2 |
| 20260504042021 | 47 | 318 | 0.0 | 1.7 | 0.00 | 0.00 | 0.00 | 54 | 1004.3 |
| 20260504041535 | 47 | 318 | 0.0 | 1.7 | 0.00 | 0.00 | 0.00 | 54 | 1004.3 |
| 20260504041019 | 46 | 318 | 0.0 | 2.6 | 0.00 | 0.00 | 0.00 | 52 | 1004.3 |
| 20260504040517 | 46 | 318 | 0.0 | 2.6 | 0.00 | 0.00 | 0.00 | 51 | 1004.4 |
| 20260504040020 | 46 | 70 | 1.7 | 2.6 | 0.00 | 0.00 | 0.00 | 50 | 1004.3 |
| 20260504035514 | 47 | 160 | 0.0 | 1.7 | 0.00 | 0.00 | 0.00 | 50 | 1004.2 |
| 20260504035013 | 47 | 160 | 0.9 | 3.5 | 0.00 | 0.00 | 0.00 | 49 | 1004.2 |
| 20260504034511 | 49 | 160 | 1.7 | 4.3 | 0.00 | 0.00 | 0.00 | 48 | 1004.2 |
| 20260504034009 | 51 | 163 | 1.7 | 4.3 | 0.00 | 0.00 | 0.00 | 46 | 1004.2 |
| 20260504033508 | 54 | 118 | 1.7 | 3.5 | 0.00 | 0.00 | 0.00 | 41 | 1004.2 |
| 20260504033006 | 57 | 91 | 0.9 | 3.5 | 0.00 | 0.00 | 0.00 | 41 | 1004.2 |
| 20260504032505 | 57 | 305 | 1.7 | 3.5 | 0.00 | 0.00 | 0.00 | 37 | 1004.1 |
| 20260504032003 | 56 | 305 | 0.9 | 1.7 | 0.00 | 0.00 | 0.00 | 42 | 1004.1 |
| 20260504031503 | 56 | 51 | 0.0 | 1.7 | 0.00 | 0.00 | 0.00 | 41 | 1004.1 |
| 20260504031004 | 56 | 51 | 0.0 | 0.9 | 0.00 | 0.00 | 0.00 | 42 | 1004.0 |
| 20260504030501 | 56 | 51 | 0.0 | 1.7 | 0.00 | 0.00 | 0.00 | 40 | 1003.9 |
| 20260504030100 | 56 | 51 | 0.0 | 2.6 | 0.00 | 0.00 | 0.00 | 39 | 1004.0 |
| 20260504025559 | 57 | 51 | 0.9 | 2.6 | 0.00 | 0.00 | 0.00 | 40 | 1004.0 |
| 20260504025058 | 57 | 51 | 0.9 | 2.6 | 0.00 | 0.00 | 0.00 | 39 | 1003.9 |
| 20260504024556 | 57 | 301 | 0.0 | 2.6 | 0.00 | 0.00 | 0.00 | 38 | 1003.8 |
| 20260504024056 | 58 | 293 | 0.9 | 3.5 | 0.00 | 0.00 | 0.00 | 39 | 1003.8 |
| 20260504023553 | 58 | 305 | 1.7 | 3.5 | 0.00 | 0.00 | 0.00 | 37 | 1003.8 |
| 20260504023051 | 59 | 305 | 1.7 | 3.5 | 0.00 | 0.00 | 0.00 | 37 | 1003.8 |
| 20260504022550 | 60 | 323 | 2.6 | 4.3 | 0.00 | 0.00 | 0.00 | 35 | 1003.7 |
| 20260504022049 | 60 | 302 | 1.7 | 4.3 | 0.00 | 0.00 | 0.00 | 37 | 1003.7 |
| 20260504021552 | 60 | 313 | 1.7 | 5.2 | 0.00 | 0.00 | 0.00 | 36 | 1003.7 |
| 20260504021049 | 61 | 309 | 2.6 | 4.3 | 0.00 | 0.00 | 0.00 | 36 | 1003.7 |
| 20260504020547 | 61 | 311 | 2.6 | 4.3 | 0.00 | 0.00 | 0.00 | 36 | 1003.8 |
| 20260504020044 | 62 | 314 | 1.7 | 4.3 | 0.00 | 0.00 | 0.00 | 36 | 1003.7 |
| 20260504015541 | 63 | 332 | 0.9 | 3.5 | 0.00 | 0.00 | 0.00 | 35 | 1003.7 |
| 20260504015040 | 64 | 345 | 2.6 | 3.5 | 0.00 | 0.00 | 0.00 | 33 | 1003.8 |
| 20260504014540 | 64 | 336 | 0.9 | 3.5 | 0.00 | 0.00 | 0.00 | 31 | 1003.7 |
| 20260504014037 | 64 | 350 | 0.9 | 3.5 | 0.00 | 0.00 | 0.00 | 33 | 1003.7 |
| 20260504013535 | 65 | 350 | 0.9 | 2.6 | 0.00 | 0.00 | 0.00 | 32 | 1003.7 |
| 20260504013044 | 65 | 359 | 0.0 | 2.6 | 0.00 | 0.00 | 0.00 | 32 | 1003.8 |
| 20260504012532 | 66 | 359 | 0.0 | 2.6 | 0.00 | 0.00 | 0.00 | 32 | 1003.9 |
| 20260504012032 | 66 | 10 | 0.9 | 4.3 | 0.00 | 0.00 | 0.00 | 31 | 1003.9 |
| 20260504011530 | 67 | 8 | 1.7 | 5.2 | 0.00 | 0.00 | 0.00 | 30 | 1003.9 |
| 20260504011028 | 67 | 28 | 2.6 | 9.6 | 0.00 | 0.00 | 0.00 | 29 | 1004.0 |
| 20260504010527 | 68 | 3 | 4.3 | 9.6 | 0.00 | 0.00 | 0.00 | 27 | 1004.0 |
| 20260504010026 | 68 | 345 | 3.5 | 8.7 | 0.00 | 0.00 | 0.00 | 27 | 1004.0 |
| 20260504005526 | 69 | 350 | 4.3 | 8.7 | 0.00 | 0.00 | 0.00 | 25 | 1004.1 |
| 20260504005023 | 69 | 312 | 4.3 | 8.7 | 0.00 | 0.00 | 0.00 | 26 | 1004.1 |
| 20260504004522 | 69 | 345 | 5.2 | 9.6 | 0.00 | 0.00 | 0.00 | 26 | 1004.1 |
| 20260504004022 | 69 | 321 | 6.1 | 10.4 | 0.00 | 0.00 | 0.00 | 27 | 1004.2 |
| 20260504003520 | 69 | 323 | 4.3 | 10.4 | 0.00 | 0.00 | 0.00 | 27 | 1004.2 |
| 20260504003018 | 69 | 8 | 5.2 | 9.6 | 0.00 | 0.00 | 0.00 | 26 | 1004.2 |
| 20260504002517 | 69 | 9 | 5.2 | 9.6 | 0.00 | 0.00 | 0.00 | 27 | 1004.2 |
| 20260504002017 | 70 | 21 | 6.1 | 13.0 | 0.00 | 0.00 | 0.00 | 25 | 1004.3 |
| 20260504001524 | 70 | 317 | 6.1 | 13.0 | 0.00 | 0.00 | 0.00 | 25 | 1004.3 |
| 20260504001015 | 70 | 350 | 4.3 | 14.8 | 0.00 | 0.00 | 0.00 | 25 | 1004.4 |
| 20260504000515 | 71 | 321 | 5.2 | 14.8 | 0.00 | 0.00 | 0.00 | 24 | 1004.3 |
| 20260504000012 | 71 | 5 | 6.1 | 11.3 | 0.00 | 0.00 | 0.00 | 25 | 1004.3 |
| 20260503235510 | 71 | 350 | 5.2 | 8.7 | 0.00 | 0.00 | 0.00 | 24 | 1004.4 |
| 20260503235009 | 71 | 15 | 5.2 | 8.7 | 0.00 | 0.00 | 0.00 | 25 | 1004.3 |
| 20260503234508 | 70 | 355 | 4.3 | 8.7 | 0.00 | 0.00 | 0.00 | 25 | 1004.4 |
| 20260503234007 | 71 | 21 | 4.3 | 8.7 | 0.00 | 0.00 | 0.00 | 25 | 1004.4 |
| 20260503233506 | 71 | 350 | 4.3 | 7.8 | 0.00 | 0.00 | 0.00 | 24 | 1004.5 |
| 20260503233007 | 71 | 350 | 4.3 | 7.0 | 0.00 | 0.00 | 0.00 | 24 | 1004.5 |
| 20260503232502 | 71 | 345 | 3.5 | 7.0 | 0.00 | 0.00 | 0.00 | 24 | 1004.7 |
| 20260503232101 | 71 | 355 | 3.5 | 7.8 | 0.00 | 0.00 | 0.00 | 24 | 1004.8 |
| 20260503231600 | 71 | 19 | 3.5 | 7.8 | 0.00 | 0.00 | 0.00 | 24 | 1004.7 |
| 20260503231100 | 71 | 15 | 3.5 | 7.8 | 0.00 | 0.00 | 0.00 | 23 | 1004.8 |
| 20260503230559 | 71 | 4 | 4.3 | 8.7 | 0.00 | 0.00 | 0.00 | 24 | 1004.7 |
| 20260503230101 | 71 | 350 | 5.2 | 10.4 | 0.00 | 0.00 | 0.00 | 23 | 1004.7 |
| 20260503225553 | 71 | 322 | 7.0 | 11.3 | 0.00 | 0.00 | 0.00 | 23 | 1004.7 |
| 20260503225052 | 72 | 341 | 7.0 | 11.3 | 0.00 | 0.00 | 0.00 | 24 | 1004.7 |
| 20260503224559 | 72 | 5 | 6.1 | 11.3 | 0.00 | 0.00 | 0.00 | 24 | 1004.7 |
| 20260503224050 | 72 | 345 | 7.8 | 11.3 | 0.00 | 0.00 | 0.00 | 24 | 1004.8 |
| 20260503223547 | 72 | 30 | 7.8 | 11.3 | 0.00 | 0.00 | 0.00 | 23 | 1004.9 |
| 20260503223046 | 72 | 355 | 6.1 | 13.0 | 0.00 | 0.00 | 0.00 | 22 | 1005.0 |
| 20260503222544 | 72 | 38 | 7.0 | 13.0 | 0.00 | 0.00 | 0.00 | 23 | 1005.0 |
| 20260503222043 | 72 | 32 | 8.7 | 12.2 | 0.00 | 0.00 | 0.00 | 23 | 1005.1 |
| 20260503221556 | 72 | 30 | 7.8 | 12.2 | 0.00 | 0.00 | 0.00 | 23 | 1005.1 |
| 20260503221044 | 73 | 35 | 7.0 | 13.9 | 0.00 | 0.00 | 0.00 | 24 | 1005.1 |
| 20260503220539 | 73 | 355 | 7.8 | 13.9 | 0.00 | 0.00 | 0.00 | 24 | 1005.2 |
| 20260503220038 | 73 | 359 | 7.8 | 13.0 | 0.00 | 0.00 | 0.00 | 23 | 1005.4 |
| 20260503215536 | 73 | 330 | 7.0 | 13.0 | 0.00 | 0.00 | 0.00 | 25 | 1005.5 |
| 20260503215034 | 72 | 336 | 4.3 | 9.6 | 0.00 | 0.00 | 0.00 | 23 | 1005.6 |
| 20260503214539 | 72 | 332 | 5.2 | 14.8 | 0.00 | 0.00 | 0.00 | 24 | 1005.8 |
| 20260503214031 | 73 | 9 | 7.8 | 14.8 | 0.00 | 0.00 | 0.00 | 24 | 1005.8 |
| 20260503213530 | 73 | 45 | 7.0 | 13.9 | 0.00 | 0.00 | 0.00 | 25 | 1005.8 |
| 20260503213028 | 73 | 350 | 9.6 | 13.9 | 0.00 | 0.00 | 0.00 | 24 | 1005.8 |
| 20260503212526 | 73 | 12 | 7.8 | 13.0 | 0.00 | 0.00 | 0.00 | 24 | 1006.0 |
| 20260503212026 | 72 | 359 | 2.6 | 7.0 | 0.00 | 0.00 | 0.00 | 22 | 1006.1 |
| 20260503211524 | 72 | 236 | 2.6 | 7.0 | 0.00 | 0.00 | 0.00 | 19 | 1006.3 |
| 20260503211023 | 72 | 329 | 1.7 | 5.2 | 0.00 | 0.00 | 0.00 | 20 | 1006.5 |
| 20260503210521 | 72 | 297 | 3.5 | 7.8 | 0.00 | 0.00 | 0.00 | 20 | 1006.5 |
| 20260503210019 | 72 | 321 | 1.7 | 10.4 | 0.00 | 0.00 | 0.00 | 20 | 1006.5 |
| 20260503205518 | 73 | 247 | 7.0 | 10.4 | 0.00 | 0.00 | 0.00 | 22 | 1006.8 |
| 20260503205017 | 73 | 232 | 4.3 | 9.6 | 0.00 | 0.00 | 0.00 | 21 | 1006.8 |
| 20260503204516 | 73 | 191 | 0.9 | 8.7 | 0.00 | 0.00 | 0.00 | 20 | 1006.8 |
| 20260503204013 | 73 | 126 | 5.2 | 17.4 | 0.00 | 0.00 | 0.00 | 20 | 1006.9 |
| 20260503203516 | 73 | 190 | 3.5 | 17.4 | 0.00 | 0.00 | 0.00 | 20 | 1006.9 |
| 20260503203012 | 73 | 184 | 0.9 | 5.2 | 0.00 | 0.00 | 0.00 | 19 | 1007.1 |
| 20260503202511 | 73 | 166 | 2.6 | 5.2 | 0.00 | 0.00 | 0.00 | 19 | 1007.1 |
| 20260503202011 | 73 | 224 | 0.0 | 4.3 | 0.00 | 0.00 | 0.00 | 20 | 1007.2 |
| 20260503201505 | 73 | 215 | 0.0 | 6.1 | 0.00 | 0.00 | 0.00 | 19 | 1007.4 |
| 20260503201004 | 73 | 190 | 3.5 | 8.7 | 0.00 | 0.00 | 0.00 | 19 | 1007.5 |
| 20260503200502 | 73 | 172 | 2.6 | 8.7 | 0.00 | 0.00 | 0.00 | 19 | 1007.6 |
| 20260503200001 | 73 | 165 | 3.5 | 7.8 | 0.00 | 0.00 | 0.00 | 20 | 1007.8 |
| 20260503195600 | 73 | 249 | 3.5 | 8.7 | 0.00 | 0.00 | 0.00 | 20 | 1007.7 |
| 20260503195058 | 73 | 162 | 3.5 | 8.7 | 0.00 | 0.00 | 0.00 | 20 | 1007.9 |
| 20260503194607 | 73 | 163 | 5.2 | 9.6 | 0.00 | 0.00 | 0.00 | 20 | 1007.9 |
| 20260503194056 | 73 | 153 | 4.3 | 8.7 | 0.00 | 0.00 | 0.00 | 21 | 1008.0 |
| 20260503193555 | 73 | 84 | 4.3 | 7.8 | 0.00 | 0.00 | 0.00 | 21 | 1008.0 |
| 20260503193103 | 72 | 196 | 4.3 | 9.6 | 0.00 | 0.00 | 0.00 | 23 | 1008.1 |
| 20260503192550 | 72 | 147 | 4.3 | 7.0 | 0.00 | 0.00 | 0.00 | 22 | 1008.2 |
| 20260503192049 | 72 | 305 | 1.7 | 7.8 | 0.00 | 0.00 | 0.00 | 20 | 1008.2 |
| 20260503191607 | 72 | 95 | 3.5 | 8.7 | 0.00 | 0.00 | 0.00 | 21 | 1008.4 |
| 20260503191047 | 72 | 188 | 0.9 | 7.8 | 0.00 | 0.00 | 0.00 | 20 | 1008.5 |
| 20260503190546 | 72 | 350 | 0.9 | 8.7 | 0.00 | 0.00 | 0.00 | 21 | 1008.6 |
| 20260503190044 | 72 | 180 | 3.5 | 13.0 | 0.00 | 0.00 | 0.00 | 20 | 1008.7 |
| 20260503185542 | 72 | 153 | 7.8 | 13.0 | 0.00 | 0.00 | 0.00 | 19 | 1008.8 |
| 20260503185041 | 73 | 217 | 2.6 | 8.7 | 0.00 | 0.00 | 0.00 | 21 | 1008.9 |
| 20260503184540 | 73 | 350 | 6.1 | 9.6 | 0.00 | 0.00 | 0.00 | 22 | 1008.9 |
| 20260503184041 | 72 | 92 | 5.2 | 14.8 | 0.00 | 0.00 | 0.00 | 20 | 1008.9 |
| 20260503183537 | 73 | 128 | 7.8 | 14.8 | 0.00 | 0.00 | 0.00 | 22 | 1009.1 |
| 20260503183035 | 72 | 150 | 7.8 | 11.3 | 0.00 | 0.00 | 0.00 | 22 | 1009.2 |
| 20260503182535 | 71 | 180 | 6.1 | 13.0 | 0.00 | 0.00 | 0.00 | 22 | 1009.2 |
| 20260503182032 | 71 | 159 | 6.1 | 11.3 | 0.00 | 0.00 | 0.00 | 23 | 1009.3 |
| 20260503181544 | 70 | 173 | 4.3 | 8.7 | 0.00 | 0.00 | 0.00 | 25 | 1009.3 |
| 20260503181029 | 70 | 147 | 6.1 | 8.7 | 0.00 | 0.00 | 0.00 | 23 | 1009.5 |
| 20260503180529 | 70 | 140 | 5.2 | 13.0 | 0.00 | 0.00 | 0.00 | 24 | 1009.6 |
| 20260503180029 | 70 | 170 | 7.0 | 14.8 | 0.00 | 0.00 | 0.00 | 25 | 1009.6 |
| 20260503175525 | 70 | 134 | 8.7 | 14.8 | 0.00 | 0.00 | 0.00 | 26 | 1009.8 |
| 20260503175023 | 70 | 163 | 7.0 | 10.4 | 0.00 | 0.00 | 0.00 | 25 | 1009.8 |
| 20260503174522 | 69 | 176 | 6.1 | 9.6 | 0.00 | 0.00 | 0.00 | 27 | 1009.9 |
| 20260503174020 | 69 | 133 | 4.3 | 11.3 | 0.00 | 0.00 | 0.00 | 28 | 1010.0 |
| 20260503173519 | 68 | 172 | 7.0 | 12.2 | 0.00 | 0.00 | 0.00 | 28 | 1010.0 |
| 20260503173017 | 68 | 143 | 5.2 | 11.3 | 0.00 | 0.00 | 0.00 | 27 | 1010.1 |
| 20260503172515 | 69 | 186 | 7.0 | 11.3 | 0.00 | 0.00 | 0.00 | 28 | 1010.1 |
| 20260503172015 | 69 | 183 | 7.8 | 11.3 | 0.00 | 0.00 | 0.00 | 27 | 1010.2 |
| 20260503171512 | 68 | 160 | 5.2 | 9.6 | 0.00 | 0.00 | 0.00 | 28 | 1010.2 |
| 20260503171011 | 68 | 192 | 5.2 | 10.4 | 0.00 | 0.00 | 0.00 | 28 | 1010.2 |
| 20260503170510 | 68 | 132 | 7.0 | 9.6 | 0.00 | 0.00 | 0.00 | 28 | 1010.4 |
| 20260503160105 | 58 | 157 | 0.9 | 4.3 | 0.00 | 0.00 | 0.00 | 42 | 1011.2 |
| 20260503150534 | 47 | 240 | 0.0 | 1.7 | 0.00 | 0.00 | 0.00 | 53 | 1012.0 |